Location: Cisewo
(53.3833°N, 14.9000°E)
Time: 13:00:05
(UTC+00:00)

USA 229 - Pass Details

Date: 03 August 2021
Orbit: 956 x 1256 km, 63.5° (Epoch: 08 August)

Event Time Altitude Azimuth Distance (km) Brightness Sun altitude
Rises 22:12:06 0° 311° (NW) 3,977 7.6 -18.4°
Reaches altitude 10° 22:15:06 10° 301° (WNW) 3,060 6.7 -18.5°
Maximum altitude 22:21:10 29° 245° (WSW) 2,053 5.0 -18.7°
Enters shadow 22:24:44 20° 206° (SSW) 2,491 5.2 -18.8°
